Weather History for KHWD - December, 2013

Change the Weather History Date:

Friday, December 27, 2013

  Actual Average Record
Temperature  
Mean Temperature 49 °F 49 °F  
Max Temperature 57 °F 57 °F 66 °F (1999)
Min Temperature 40 °F 42 °F 35 °F (2003)
Degree Days  
Heating Degree Days 16    
Month to date heating degree days 386  
Since 1 July heating degree days 827  
Cooling Degree Days 0    
Month to date cooling degree days 0  
Year to date cooling degree days 250  
Moisture  
Dew Point 39 °F    
Average Humidity 67    
Maximum Humidity 80    
Minimum Humidity 54    
Precipitation  
Precipitation 0.00 in - - ()
Month to date precipitation 0.32  
Year to date precipitation 2.69  
Since 1 July precipitation 1.20  
Sea Level Pressure  
Sea Level Pressure 30.21 in    
Wind  
Wind Speed 1 mph (East)    
Max Wind Speed 8 mph    
Max Gust Speed 9 mph    
Visibility 7 miles    
Events      
T = Trace of Precipitation, MM = Missing Value Source: NWS Daily Summary

Daily Weather History Graph

Daily Weather History Graph

Search for Another Location

Airport or City:

Trip Planner

Search our weather history database for the weather conditions in past years. The results will help you decide how hot, cold, wet, or windy it might be!

Date:

Astronomy

Dec. 27, 2013 Rise Set
Actual Time 7:22 AM PST 4:57 PM PST
Civil Twilight 6:53 AM PST 5:26 PM PST
Nautical Twilight 6:20 AM PST 5:59 PM PST
Astronomical Twilight 5:48 AM PST 6:31 PM PST
Moon 2:03 AM PST (12/27) 1:08 PM PST (12/27)
Length of Visible Light 10h 33m
Length of Day
9h 34m
Waning Crescent, 27% of the Moon is Illuminated
Dec 27
Waning Crescent
Jan 1
New
Jan 7
First Quarter
Jan 15
Full
Jan 23
Last Quarter

Hourly Weather History & Observations

Time (PST) Temp. Windchill Dew Point Humidity Pressure Visibility Wind Dir Wind Speed Gust Speed Precip Events Conditions
12:54 AM 44.1 °F - 34.0 °F 68% 30.24 in 9.0 mi Calm Calm - N/A   Clear
1:54 AM 45.0 °F - 34.0 °F 65% 30.25 in 10.0 mi Calm Calm - N/A   Clear
2:54 AM 44.1 °F 42.5 °F 35.1 °F 71% 30.25 in 10.0 mi ESE 3.5 mph - N/A   Clear
3:54 AM 42.1 °F - 34.0 °F 73% 30.25 in 9.0 mi Calm Calm - N/A   Clear
4:54 AM 43.0 °F 41.3 °F 36.0 °F 76% 30.24 in 7.0 mi East 3.5 mph - N/A   Clear
5:54 AM 42.1 °F - 36.0 °F 79% 30.24 in 8.0 mi Calm Calm - N/A   Clear
6:54 AM 42.1 °F - 35.1 °F 76% 30.23 in 8.0 mi Calm Calm - N/A   Clear
7:54 AM 42.1 °F - 36.0 °F 79% 30.25 in 6.0 mi Calm Calm - N/A   Haze
8:54 AM 48.0 °F - 42.1 °F 80% 30.26 in 7.0 mi Calm Calm - N/A   Clear
9:54 AM 51.1 °F - 39.0 °F 63% 30.26 in 9.0 mi SSE 4.6 mph - N/A   Clear
10:54 AM 53.1 °F - 37.9 °F 57% 30.26 in 8.0 mi Calm Calm - N/A   Clear
11:54 AM 53.1 °F - 41.0 °F 64% 30.23 in 6.0 mi Calm Calm - N/A   Haze
12:54 PM 55.9 °F - 41.0 °F 57% 30.21 in 6.0 mi Calm Calm - N/A   Haze
1:54 PM 55.9 °F - 42.1 °F 60% 30.19 in 5.0 mi NW 6.9 mph - N/A   Haze
2:54 PM 55.9 °F - 41.0 °F 57% 30.18 in 6.0 mi Calm Calm - N/A   Haze
3:54 PM 55.0 °F - 43.0 °F 64% 30.17 in 6.0 mi Calm Calm - N/A   Haze
4:54 PM 52.0 °F - 41.0 °F 66% 30.17 in 7.0 mi West 4.6 mph - N/A   Clear
5:54 PM 53.1 °F - 43.0 °F 69% 30.17 in 8.0 mi Calm Calm - N/A   Clear
6:54 PM 51.1 °F - 42.1 °F 71% 30.19 in 7.0 mi Calm Calm - N/A   Clear
7:54 PM 48.9 °F - 39.9 °F 71% 30.19 in 6.0 mi Calm Calm - N/A   Haze
8:54 PM 48.9 °F - 41.0 °F 74% 30.19 in 6.0 mi Calm Calm - N/A   Haze
9:54 PM 48.0 °F - 39.0 °F 71% 30.17 in 7.0 mi Calm Calm - N/A   Clear
10:54 PM 46.0 °F 44.8 °F 37.0 °F 71% 30.16 in 7.0 mi ENE 3.5 mph - N/A   Clear
11:54 PM 45.0 °F 42.6 °F 36.0 °F 71% 30.16 in 8.0 mi ENE 4.6 mph - N/A   Clear